Simultaneous Nadir Overpasses (SNOs) Predictions

Prediction of SNOs between GOES-16 and LANDSAT-8 Satellite Orbit:

Table of predicted SNOs for the next 14.0 days since TLE Epoch: 5/13/2023
Index Date Time (GOES-16) GOES-16 Lat,Lon LANDSAT-8 Lat,Lon Distance(km) Time Diff (sec)
1 05/13/2023 14:56:15 0.02, -75.20 -0.88, -70.96 481.58 80
2 05/14/2023 03:17:39 -0.02, -75.19 -0.22, -76.16 109.85 80
3 05/16/2023 03:02:47 -0.02, -75.21 0.43, -73.21 227.98 80
4 05/16/2023 15:24:02 0.02, -75.22 0.68, -78.36 356.66 80
5 05/18/2023 15:11:49 0.02, -75.25 0.06, -75.40 17.95 80
6 05/20/2023 15:02:16 0.02, -75.27 -0.57, -72.45 321.21 80
7 05/21/2023 03:23:40 -0.02, -75.27 -0.51, -77.64 269.53 80
8 05/23/2023 03:08:46 -0.02, -75.30 0.09, -74.68 70.27 80
9 05/25/2023 02:56:33 -0.01, -75.34 0.78, -71.73 410.75 80
10 05/25/2023 15:17:48 0.01, -75.36 0.32, -76.89 173.31 80
